sat.trackr.live / text

‹ back to catalog

STARLINK-31793

NORAD 60053 · 2024-112R

PAYLOAD ACTIVE UNKNOWN

§ Identity

Operator
Country
US
Launch date
2024-06-08
Launch site
AFWTR
Launch vehicle
Mass (kg)
RCS (m²)

Purposes: comms

External: N2YO · Heavens-Above · Gunter

§ Orbital elements

Epoch: 2026-05-25T02:48:28.334304Z

Period
94.11 min
Inclination
53.1604°
Eccentricity
0.0001298
Mean motion
15.30194775 rev/d
Perigee alt
474.3 km
Apogee alt
476.1 km
Semi-major
6,853.4 km
B*
1.1653e-5
RAAN
83.3069°
Arg perigee
93.9314°
Mean anomaly
266.1835°
Rev number
11,029

§ Raw data

STARLINK-317931 60053U 24112R   26145.11699461 -.00000014  00000+0  11653-4 0  99942 60053  53.1604  83.3069 0001298  93.9314 266.1835 15.30194775110299

JSON: /api/v1/satellites/60053 · /tle

For live sub-satellite position, see the globe view (requires WebGL).

§ Visibility from observer

Set your observer location to see the next 7 days of passes ≥ 10°. The values pass through the URL so the page stays shareable.

No JS? Fill the form by hand. The geolocation button needs JavaScript.